Home   Weather   Fairfield   Past weeks
Flag for Jamaica

Past Weather in Fairfield, Jamaica — Yesterday and Last 2 Weeks

Now
82 °F

Partly sunny.


Feels Like: 88 °F
Forecast: 85 / 76 °F
Wind: 7 mph from Northeast

Location: Montego Bay / Sangster

Current Time: Dec 5, 2019 at 10:08:27 am

Latest Report: Dec 5, 2019 at 9:00 am


Visibility: N/A

Pressure: 30.01 "Hg

Humidity: 74%

Dew Point: 73 °F

Location of FairfieldLocation

Past Weather in Fairfield — Graph

°F

Fairfield Temperature Yesterday

Maximum temperature yesterday: 82 °F (at 8:00 am)
Minimum temperature yesterday: 79 °F (at 2:00 am)
Average temperature yesterday: 81 °F

High & Low Weather Summary for the Past Weeks

 TemperatureHumidityPressure
High88 °F (Nov 27, 12:00 pm)89% (Nov 20, 10:00 am)30.01 "Hg (Nov 20, 10:00 am)
Low75 °F (Nov 30, 3:00 am)55% (Nov 22, 2:00 pm)29.80 "Hg (Nov 25, 4:00 pm)
Average81 °F73%29.92 "Hg
* Reported Nov 20 9:00 am — Dec 5 9:00 am, Fairfield. Weather by CustomWeather, © 2019

Note: Actual official high and low records may vary slightly from our data, if they occured in-between our weather recording intervals... More about our weather records

Fairfield Weather History for the Previous 24 Hours

Scroll right to see more
 ConditionsComfort  
Time TempWeatherWind HumidityBarometerVisibility
9:00 am
Thu, Dec 5
82 °FPartly sunny.7 mph74%30.01 "HgN/A
8:00 am81 °FPartly sunny.10 mph74%30.01 "HgN/A
7:00 am81 °FPartly sunny.9 mph74%29.98 "HgN/A
6:00 am81 °FPassing clouds.8 mph74%29.95 "HgN/A
5:00 am81 °FPassing clouds.7 mph70%29.95 "HgN/A
4:00 am81 °FPassing clouds.7 mph79%29.92 "HgN/A
3:00 am81 °FPassing clouds.6 mph74%29.92 "HgN/A
2:00 am81 °FPassing clouds.2 mph79%29.92 "HgN/A
1:00 am81 °FPassing clouds.2 mph74%29.95 "HgN/A
12:00 am79 °FPassing clouds.2 mph79%29.95 "HgN/A
11:00 pm
Wed, Dec 4
81 °FThundershowers. Passing clouds.7 mph74%29.95 "HgN/A
10:00 pm81 °FPassing clouds.8 mph79%29.95 "HgN/A
9:00 pm81 °FPassing clouds.8 mph79%29.95 "HgN/A
8:00 pm82 °FPassing clouds.8 mph74%29.95 "HgN/A
7:00 pm79 °FPassing clouds.6 mph84%29.92 "HgN/A
6:00 pm81 °FPassing clouds.6 mph74%29.92 "HgN/A
5:00 pm82 °FPassing clouds.8 mph70%29.89 "HgN/A
4:00 pm82 °FScattered clouds.8 mph74%29.89 "HgN/A
3:00 pm82 °FPassing clouds.3 mph74%29.89 "HgN/A
2:00 pm82 °FPassing clouds.5 mph74%29.89 "HgN/A
1:00 pm81 °FScattered clouds.8 mph84%29.92 "HgN/A
12:00 pm79 °FSprinkles. Partly sunny.13 mph89%29.95 "HgN/A
11:16 am81 °FRain showers. Broken clouds.7 mph84%29.98 "HgN/A
11:00 am82 °FSprinkles. Partly sunny.8 mph79%29.98 "HgN/A
10:00 am81 °FScattered showers. Broken clouds.8 mph84%29.98 "HgN/A
Weather by CustomWeather, © 2019

See weather overview

Advertising